period_start,C,m1,H,J0,J1,J2,J3,J4,J5,JA,JB,JC,JD,JJ,JK,JN,#
2015-08-28 00:05:00,0.03,0.36,0.00,25.19,29.12,31.91,14.46,49.66,1021.45,2031.99,3310.35,3120.46,3412.99,599.99,594.46,18.63,0000 0000 0000 0000 000000
2015-08-28 00:10:01,0.01,0.36,0.00,25.20,29.12,31.90,14.52,49.52,1021.34,2031.98,3309.99,3120.01,3412.57,599.59,593.99,18.68,0000 0000 0000 0000 000000
2015-08-28 00:15:03,0.02,0.36,0.00,25.21,29.12,31.90,14.44,49.48,1021.40,2031.98,3309.29,3119.90,3412.03,599.61,594.14,18.73,0000 0000 0000 0000 000000
2015-08-28 00:20:04,0.02,0.36,0.00,25.20,29.12,31.92,14.49,49.70,1021.44,2031.99,3308.99,3119.16,3411.80,599.90,594.41,18.78,0000 0000 0000 0000 000000
2015-08-28 00:25:06,0.01,0.36,0.00,25.20,29.12,31.92,14.44,49.35,1021.41,2031.98,3308.83,3119.00,3411.13,599.98,594.33,18.83,0000 0000 0000 0000 000000
2015-08-28 00:30:07,0.01,0.36,0.00,25.20,29.12,31.91,14.49,49.44,1021.35,2031.97,3308.08,3118.99,3411.00,599.68,594.09,18.88,0000 0000 0000 0000 000000
2015-08-28 00:35:08,0.03,0.36,0.00,25.20,29.12,31.91,14.44,49.52,1021.45,2031.98,3307.83,3118.57,3410.68,599.71,594.14,18.93,0000 0000 0000 0000 000000
2015-08-28 00:40:10,0.02,0.36,0.00,25.19,29.12,31.92,14.49,49.62,1021.48,2031.97,3307.04,3118.02,3410.03,600.36,594.75,18.98,0000 0000 0000 0000 000000
2015-08-28 00:45:11,0.01,0.36,0.00,25.19,29.12,31.93,14.53,49.45,1021.44,2031.97,3306.65,3117.93,3409.84,600.05,594.42,19.03,0000 0000 0000 0000 000000
2015-08-28 00:50:12,0.04,0.37,0.00,25.19,29.12,31.92,14.49,49.36,1021.23,2031.98,3306.00,3117.26,3409.07,599.93,594.32,19.08,0000 0000 0000 0000 000000
2015-08-28 00:55:14,0.01,0.37,0.00,25.19,29.12,31.90,14.53,49.49,1021.26,2031.96,3305.27,3117.00,3408.96,599.83,594.28,19.13,0000 0000 0000 0000 000000
2015-08-28 01:00:15,0.02,0.37,0.00,25.19,29.12,31.91,14.54,49.57,1021.07,2031.97,3304.98,3116.93,3408.36,600.10,594.31,19.18,0000 0000 0000 0000 000000
2015-08-28 01:05:17,0.03,0.37,0.00,25.20,29.12,31.92,14.46,49.55,1021.03,2031.99,3304.31,3116.29,3408.01,599.98,594.07,19.23,0000 0000 0000 0000 000000
2015-08-28 01:10:18,0.01,0.37,0.00,25.20,29.12,31.92,14.41,49.44,1021.02,2031.99,3304.00,3116.02,3407.89,599.63,593.85,19.28,0000 0000 0000 0000 000000
2015-08-28 01:15:20,0.02,0.37,0.00,25.20,29.12,31.90,14.44,49.27,1021.02,2031.99,3303.52,3115.99,3407.20,599.89,594.04,19.33,0000 0000 0000 0000 000000
2015-08-28 01:20:21,0.01,0.37,0.00,25.20,29.12,31.90,14.41,49.23,1021.01,2031.97,3303.01,3115.66,3407.00,599.93,594.12,19.38,0000 0000 0000 0000 000000
2015-08-28 01:25:22,0.02,0.37,0.00,25.20,29.12,31.90,14.38,49.39,1021.01,2031.99,3302.71,3115.05,3406.80,599.76,593.92,19.43,0000 0000 0000 0000 000000
2015-08-28 01:30:24,0.01,0.38,0.00,25.20,29.12,31.89,14.52,49.38,1021.01,2031.98,3302.03,3114.99,3406.09,600.21,594.41,19.48,0000 0000 0000 0000 000000
2015-08-28 01:35:25,0.01,0.38,0.00,25.20,29.12,31.90,14.49,49.63,1021.01,2031.97,3301.81,3114.78,3405.98,599.99,594.07,19.53,0000 0000 0000 0000 000000
2015-08-28 01:40:27,0.03,0.38,0.00,25.21,29.12,31.90,14.49,49.42,1020.93,2031.98,3301.05,3114.10,3405.40,599.78,593.94,19.58,0000 0000 0000 0000 000000
2015-08-28 01:45:27,0.01,0.38,0.00,25.21,29.12,31.90,14.50,49.55,1020.69,2031.96,3300.74,3113.99,3405.00,600.05,594.04,19.63,0000 0000 0000 0000 000000
2015-08-28 01:50:29,0.02,0.38,0.00,25.21,29.12,31.91,14.47,49.44,1020.62,2031.98,3300.02,3113.71,3404.84,600.06,594.02,19.68,0000 0000 0000 0000 000000
2015-08-28 01:55:30,0.03,0.38,0.00,25.22,29.12,31.91,14.47,49.49,1020.66,2031.98,3299.65,3113.07,3404.09,599.95,593.81,19.73,0000 0000 0000 0000 000000
2015-08-28 02:00:32,0.01,0.38,0.00,25.23,29.12,31.90,14.49,49.36,1020.83,2031.98,3299.03,3113.00,3403.99,599.76,593.84,19.78,0000 0000 0000 0000 000000
2015-08-28 02:05:33,0.03,0.38,0.00,25.25,29.14,31.87,14.44,49.38,1020.69,2031.99,3298.64,3112.73,3403.39,599.90,593.82,19.83,0000 0000 0000 0000 000000
2015-08-28 02:10:34,0.02,0.39,0.00,25.26,29.15,31.85,14.43,49.38,1020.56,2031.98,3298.00,3112.04,3403.00,599.71,593.47,19.88,0000 0000 0000 0000 000000
2015-08-28 02:15:35,0.02,0.39,0.00,25.27,29.15,31.88,14.43,49.53,1020.53,2031.98,3297.36,3111.89,3402.52,599.61,593.68,19.93,0000 0000 0000 0000 000000
2015-08-28 02:20:36,0.05,0.39,0.00,25.30,29.16,31.87,14.44,49.76,1020.53,2031.97,3296.57,3111.01,3401.70,599.46,593.50,19.98,0000 0000 0000 0000 000000
2015-08-28 02:25:37,0.03,0.39,0.00,25.31,29.17,31.85,14.49,49.76,1020.53,2031.97,3295.54,3110.20,3401.00,599.87,593.54,20.03,0000 0000 0000 0000 000000
2015-08-28 02:30:39,0.01,0.39,0.00,25.34,29.18,31.84,14.43,49.74,1020.53,2031.95,3295.01,3110.00,3400.34,600.06,593.81,20.08,0000 0000 0000 0000 000000
2015-08-28 02:35:40,0.02,0.39,0.00,25.37,29.20,31.82,14.48,49.67,1020.53,2031.95,3294.62,3109.77,3400.01,599.85,593.44,20.13,0000 0000 0000 0000 000000
2015-08-28 02:40:41,-0.01,0.39,0.00,25.39,29.20,31.79,14.41,49.78,1020.52,2031.64,3294.02,3109.05,3399.51,599.66,593.16,20.18,0000 0000 0000 0000 000000
2015-08-28 02:45:43,0.02,0.39,0.00,25.41,29.22,31.83,14.46,49.82,1020.52,2031.37,3293.41,3108.94,3399.00,600.11,593.61,20.23,0000 0000 0000 0000 000000
2015-08-28 02:50:44,0.01,0.39,0.00,25.44,29.22,31.81,14.56,49.68,1020.52,2031.21,3292.92,3108.23,3398.50,600.77,594.22,20.28,0000 0000 0000 0000 000000
2015-08-28 02:55:45,0.02,0.40,0.00,25.46,29.24,31.83,14.40,49.58,1020.52,2031.18,3292.28,3107.99,3398.01,600.03,593.43,20.34,0000 0000 0000 0000 000000
2015-08-28 03:00:46,0.04,0.40,0.00,25.48,29.25,31.82,14.38,49.73,1020.51,2031.06,3291.33,3107.30,3397.28,599.38,592.84,20.39,0000 0000 0000 0000 000000
2015-08-28 03:05:47,0.00,0.40,0.00,25.50,29.26,31.87,14.49,49.75,1020.52,2031.01,3290.91,3106.98,3396.90,600.34,593.66,20.44,0000 0000 0000 0000 000000
2015-08-28 03:10:48,0.04,0.40,0.00,25.52,29.27,31.86,14.48,49.91,1020.49,2031.00,3290.11,3106.44,3396.10,599.89,593.16,20.49,0000 0000 0000 0000 000000
2015-08-28 03:15:50,0.01,0.40,0.00,25.54,29.28,31.85,14.37,49.65,1020.45,2031.00,3289.55,3106.02,3395.91,600.12,593.40,20.54,0000 0000 0000 0000 000000
2015-08-28 03:20:51,0.02,0.40,0.00,25.55,29.30,31.85,14.45,49.72,1020.48,2031.00,3288.96,3105.83,3395.16,599.86,592.92,20.59,0000 0000 0000 0000 000000
2015-08-28 03:25:53,0.03,0.40,0.00,25.56,29.30,31.90,14.42,49.69,1020.45,2030.99,3288.39,3105.08,3394.91,600.23,593.37,20.64,0000 0000 0000 0000 000000
2015-08-28 03:30:54,0.01,0.40,0.00,25.58,29.32,31.89,14.44,49.78,1020.38,2030.98,3287.99,3104.95,3394.14,599.95,593.01,20.69,0000 0000 0000 0000 000000
2015-08-28 03:35:55,0.03,0.41,0.00,25.61,29.32,31.87,14.46,49.87,1020.13,2030.98,3287.66,3104.43,3393.97,599.99,592.97,20.74,0000 0000 0000 0000 000000
2015-08-28 03:40:56,0.04,0.41,0.00,25.63,29.35,31.92,14.50,49.63,1020.43,2030.98,3286.61,3104.00,3393.25,599.99,593.01,20.79,0000 0000 0000 0000 000000
2015-08-28 03:45:58,0.03,0.41,0.00,25.65,29.35,31.96,14.37,49.58,1020.28,2030.98,3285.98,3103.33,3392.74,599.95,592.84,20.84,0000 0000 0000 0000 000000
2015-08-28 03:50:59,0.01,0.41,0.00,25.65,29.37,31.95,14.39,49.66,1020.13,2030.89,3285.14,3102.99,3392.00,600.08,592.85,20.89,0000 0000 0000 0000 000000
2015-08-28 03:56:00,0.01,0.41,0.00,25.67,29.37,31.99,14.39,49.70,1020.15,2030.56,3284.82,3102.43,3391.31,599.46,592.29,20.94,0000 0000 0000 0000 000000
2015-08-28 04:01:01,0.02,0.41,0.00,25.69,29.38,31.98,14.41,49.72,1020.08,2030.62,3284.04,3102.01,3391.00,600.04,592.68,20.99,0000 0000 0000 0000 000000
2015-08-28 04:06:03,0.01,0.41,0.00,25.70,29.40,31.98,14.41,49.66,1020.06,2030.31,3283.54,3101.63,3390.55,599.86,592.54,21.04,0000 0000 0000 0000 000000
2015-08-28 04:11:04,0.03,0.41,0.00,25.72,29.40,32.02,14.42,49.70,1020.05,2030.21,3282.74,3101.02,3389.98,599.87,592.47,21.09,0000 0000 0000 0000 000000
2015-08-28 04:16:05,0.02,0.41,0.00,25.72,29.40,32.02,14.34,49.45,1020.04,2030.08,3282.03,3100.61,3389.21,599.88,592.46,21.14,0000 0000 0000 0000 000000
2015-08-28 04:21:07,0.02,0.42,0.00,25.74,29.42,32.03,14.43,49.78,1020.04,2030.04,3281.35,3100.01,3388.82,599.99,592.55,21.19,0000 0000 0000 0000 000000
2015-08-28 04:26:08,0.02,0.42,0.00,25.75,29.42,32.06,14.46,49.82,1020.04,2030.01,3280.88,3099.72,3388.09,600.06,592.65,21.24,0000 0000 0000 0000 000000
2015-08-28 04:31:09,0.03,0.42,0.00,25.77,29.44,32.05,14.39,49.72,1020.02,2030.00,3280.05,3099.04,3387.67,599.90,592.34,21.29,0000 0000 0000 0000 000000
2015-08-28 04:36:10,0.03,0.42,0.00,25.79,29.45,32.05,14.31,49.55,1020.01,2030.01,3279.19,3098.56,3387.00,600.00,592.41,21.34,0000 0000 0000 0000 000000
2015-08-28 04:41:12,0.03,0.42,0.00,25.80,29.46,32.08,14.46,49.76,1020.01,2030.01,3278.56,3098.01,3386.32,600.23,592.67,21.39,0000 0000 0000 0000 000000
2015-08-28 04:46:13,0.04,0.42,0.00,25.81,29.47,32.07,14.46,49.81,1020.02,2030.00,3277.68,3097.37,3385.70,600.42,592.83,21.44,0000 0000 0000 0000 000000
2015-08-28 04:51:14,0.02,0.43,0.00,25.82,29.47,32.09,14.36,49.73,1020.02,2030.00,3276.94,3096.90,3385.00,599.88,592.28,21.49,0000 0000 0000 0000 000000
2015-08-28 04:56:15,0.04,0.43,0.00,25.84,29.50,32.11,14.50,49.85,1020.01,2030.00,3276.13,3096.14,3384.22,600.03,592.48,21.54,0000 0000 0000 0000 000000
2015-08-28 05:01:17,0.02,0.43,0.00,25.85,29.50,32.12,14.41,49.78,1019.96,2030.00,3275.50,3095.95,3383.90,599.85,592.27,21.59,0000 0000 0000 0000 000000
2015-08-28 05:06:18,0.03,0.43,0.00,25.86,29.51,32.15,14.40,49.82,1019.89,2029.99,3274.95,3095.21,3383.08,599.78,592.08,21.64,0000 0000 0000 0000 000000
2015-08-28 05:11:19,0.03,0.43,0.00,25.88,29.52,32.15,14.42,49.75,1019.92,2029.97,3274.17,3094.88,3382.60,600.08,592.40,21.69,0000 0000 0000 0000 000000
2015-08-28 05:16:20,0.04,0.44,0.00,25.88,29.52,32.18,14.41,49.83,1019.92,2029.98,3273.19,3094.10,3382.01,599.80,592.00,21.74,0000 0000 0000 0000 000000
2015-08-28 05:21:22,0.02,0.44,0.00,25.90,29.53,32.17,14.34,49.67,1019.78,2029.97,3272.68,3093.94,3381.38,600.28,592.35,21.79,0000 0000 0000 0000 000000
2015-08-28 05:26:24,0.04,0.44,0.00,25.90,29.55,32.17,14.38,49.77,1019.70,2029.98,3271.87,3093.22,3380.89,599.93,592.05,21.84,0000 0000 0000 0000 000000
2015-08-28 05:31:25,0.02,0.44,0.00,25.91,29.55,32.20,14.36,49.51,1019.66,2029.93,3271.03,3092.75,3380.07,599.93,592.21,21.89,0000 0000 0000 0000 000000
2015-08-28 05:36:26,0.04,0.44,0.00,25.92,29.55,32.20,14.38,49.64,1019.63,2029.87,3270.19,3092.05,3379.38,599.67,591.58,21.94,0000 0000 0000 0000 000000
2015-08-28 05:41:27,0.01,0.44,0.00,25.94,29.56,32.22,14.36,49.63,1019.60,2029.91,3269.90,3091.97,3379.01,599.63,591.55,21.99,0000 0000 0000 0000 000000
2015-08-28 05:46:28,0.04,0.45,0.00,25.94,29.57,32.24,14.38,49.77,1019.61,2029.88,3269.10,3091.48,3378.70,600.00,591.90,22.04,0000 0000 0000 0000 000000
2015-08-28 05:51:30,0.01,0.45,0.00,25.95,29.57,32.24,14.37,49.72,1019.59,2029.93,3268.91,3091.03,3378.07,599.57,591.52,22.09,0000 0000 0000 0000 000000
2015-08-28 05:56:31,0.01,0.45,0.00,25.95,29.57,32.25,14.40,49.72,1019.58,2029.88,3268.12,3090.99,3377.94,600.08,591.74,22.14,0000 0000 0000 0000 000000
2015-08-28 06:01:32,0.02,0.45,0.00,25.97,29.57,32.25,14.42,49.50,1019.58,2029.67,3267.89,3090.41,3377.16,600.20,592.05,22.19,0000 0000 0000 0000 000000
2015-08-28 06:06:34,0.02,0.45,0.00,25.97,29.59,32.25,14.47,49.59,1019.55,2029.56,3267.09,3090.01,3376.88,600.31,592.02,22.24,0000 0000 0000 0000 000000
2015-08-28 06:11:35,0.04,0.45,0.00,25.97,29.60,32.27,14.41,49.59,1019.55,2029.63,3266.30,3089.73,3376.14,600.09,591.75,22.29,0000 0000 0000 0000 000000
2015-08-28 06:16:36,0.00,0.45,0.00,25.97,29.60,32.29,14.34,49.57,1019.55,2029.49,3265.99,3089.05,3375.94,599.17,591.07,22.34,0000 0000 0000 0000 000000
2015-08-28 06:21:37,0.02,0.45,0.00,25.99,29.60,32.30,14.40,49.49,1019.55,2029.35,3265.29,3088.99,3375.26,600.58,592.36,22.39,0000 0000 0000 0000 000000
2015-08-28 06:26:39,0.01,0.45,0.00,26.01,29.61,32.27,14.40,49.63,1019.55,2029.26,3264.88,3088.43,3374.95,599.96,591.71,22.44,0000 0000 0000 0000 000000
2015-08-28 06:31:40,0.02,0.45,0.00,26.03,29.62,32.28,14.49,49.51,1019.55,2029.10,3264.12,3088.00,3374.19,600.31,592.03,22.49,0000 0000 0000 0000 000000
2015-08-28 06:36:41,0.02,0.45,0.00,26.05,29.62,32.29,14.31,49.44,1019.55,2029.14,3263.93,3087.77,3373.97,599.71,591.48,22.54,0000 0000 0000 0000 000000
2015-08-28 06:41:42,0.03,0.46,0.00,26.06,29.65,32.30,14.38,49.26,1019.55,2029.08,3263.11,3087.05,3373.22,600.25,591.88,22.59,0000 0000 0000 0000 000000
2015-08-28 06:46:44,0.04,0.46,0.00,26.09,29.65,32.29,14.27,49.45,1019.55,2029.03,3262.31,3086.33,3372.50,599.64,591.22,22.64,0000 0000 0000 0000 000000
2015-08-28 06:51:45,0.01,0.46,0.00,26.10,29.67,32.30,14.32,49.54,1019.55,2029.02,3261.93,3085.99,3371.97,599.59,591.12,22.69,0000 0000 0000 0000 000000
2015-08-28 06:56:46,0.05,0.46,0.00,26.12,29.68,32.30,14.37,49.50,1019.54,2029.01,3261.11,3085.32,3371.16,600.39,591.88,22.74,0000 0000 0000 0000 000000
2015-08-28 07:01:48,0.01,0.46,0.00,26.14,29.70,32.30,14.32,49.63,1019.55,2029.00,3260.63,3085.00,3370.90,599.77,591.38,22.79,0000 0000 0000 0000 000000
2015-08-28 07:06:49,0.03,0.46,0.00,26.15,29.71,32.32,14.47,49.44,1019.53,2029.00,3259.99,3084.48,3370.09,600.23,591.69,22.84,0000 0000 0000 0000 000000
2015-08-28 07:11:50,0.03,0.47,0.00,26.17,29.72,32.31,14.36,49.49,1019.52,2029.00,3259.14,3083.99,3369.45,600.00,591.43,22.89,0000 0000 0000 0000 000000
2015-08-28 07:16:51,0.03,0.47,0.00,26.18,29.75,32.33,14.32,49.47,1019.48,2029.00,3258.57,3083.32,3368.93,599.66,590.95,22.94,0000 0000 0000 0000 000000
2015-08-28 07:21:52,0.02,0.47,0.00,26.20,29.76,32.35,14.35,49.32,1019.42,2029.00,3257.80,3082.96,3368.15,599.42,590.73,22.99,0000 0000 0000 0000 000000
2015-08-28 07:26:54,0.05,0.47,0.00,26.22,29.77,32.36,14.48,49.59,1019.30,2029.00,3256.86,3082.19,3367.58,600.04,591.18,23.04,0000 0000 0000 0000 000000
2015-08-28 07:31:55,0.08,0.47,0.00,26.24,29.78,32.38,14.42,49.58,1019.26,2028.97,3255.48,3081.39,3366.49,599.83,590.89,23.09,0000 0000 0000 0000 000000
2015-08-28 07:36:56,0.06,0.48,0.00,26.25,29.80,32.39,14.34,49.44,1019.44,2028.97,3253.55,3080.02,3364.98,600.23,591.56,23.14,0000 0000 0000 0000 000000
2015-08-28 07:41:58,0.03,0.48,0.00,26.26,29.81,32.41,14.28,49.38,1019.47,2028.92,3252.90,3079.36,3364.24,599.88,591.09,23.19,0000 0000 0000 0000 000000
2015-08-28 07:46:59,0.02,0.48,0.00,26.27,29.82,32.41,14.34,49.29,1019.36,2028.71,3251.80,3078.72,3363.52,599.92,590.96,23.24,0000 0000 0000 0000 000000
2015-08-28 07:52:00,0.05,0.49,0.00,26.29,29.83,32.43,14.28,49.30,1019.21,2028.44,3250.21,3077.58,3362.17,599.94,590.88,23.30,0000 0000 0000 0000 000000
2015-08-28 07:57:01,0.05,0.49,0.00,26.30,29.85,32.47,14.28,49.34,1019.23,2028.16,3248.76,3076.55,3361.10,599.66,590.72,23.35,0000 0000 0000 0000 000000
2015-08-28 08:02:03,0.05,0.49,0.00,26.32,29.86,32.48,14.37,49.40,1019.16,2028.06,3247.62,3075.70,3360.12,599.99,590.93,23.40,0000 0000 0000 0000 000000
2015-08-28 08:07:04,0.09,0.49,0.00,26.32,29.87,32.49,14.38,49.64,1019.07,2028.04,3245.52,3074.30,3358.51,600.23,591.07,23.45,0000 0000 0000 0000 000000
2015-08-28 08:12:05,0.06,0.50,0.00,26.33,29.88,32.48,14.40,49.61,1019.06,2028.03,3244.07,3073.23,3357.38,600.17,590.92,23.50,0000 0000 0000 0000 000000
2015-08-28 08:17:06,0.10,0.50,0.00,26.35,29.90,32.52,14.33,49.40,1019.06,2028.00,3242.15,3071.87,3355.84,600.17,590.95,23.55,0000 0000 0000 0000 000000
2015-08-28 08:22:07,0.15,0.51,0.00,26.35,29.90,32.55,14.35,49.36,1019.06,2028.01,3239.10,3069.91,3353.49,599.90,590.69,23.60,0000 0000 0000 0000 000000
2015-08-28 08:27:09,0.10,0.52,0.00,26.36,29.92,32.55,14.36,49.40,1019.05,2028.01,3236.31,3067.95,3351.47,600.17,590.94,23.65,0000 0000 0000 0000 000000
2015-08-28 08:32:10,0.11,0.52,0.00,26.37,29.92,32.55,14.34,49.58,1019.01,2028.00,3234.00,3066.39,3349.71,600.07,590.78,23.70,0000 0000 0000 0000 000000
2015-08-28 08:37:11,0.14,0.53,0.00,26.37,29.95,32.57,14.35,49.50,1018.95,2028.01,3231.00,3064.37,3347.42,599.95,590.61,23.75,0000 0000 0000 0000 000000
2015-08-28 08:42:12,0.14,0.53,0.00,26.39,29.95,32.59,14.37,49.36,1018.94,2028.00,3227.92,3062.22,3345.09,599.88,590.52,23.80,0000 0000 0000 0000 000000
2015-08-28 08:47:14,0.24,0.55,0.00,26.40,29.97,32.61,14.39,49.41,1018.76,2028.00,3223.17,3058.91,3341.51,600.25,590.85,23.85,0000 0000 0000 0000 000000
2015-08-28 08:52:15,0.15,0.56,0.00,26.40,29.97,32.64,14.36,49.46,1018.63,2027.99,3219.63,3056.05,3338.40,600.40,590.99,23.90,0000 0000 0000 0000 000000
2015-08-28 08:57:16,0.10,0.56,0.00,26.42,30.00,32.65,14.27,49.42,1018.84,2027.99,3217.66,3054.56,3336.77,599.71,590.34,23.95,0000 0000 0000 0000 000000
2015-08-28 09:02:18,0.09,0.57,0.00,26.44,30.00,32.66,14.35,49.70,1018.88,2027.97,3215.69,3053.10,3335.20,600.08,590.60,24.00,0000 0000 0000 0000 000000
2015-08-28 09:07:19,0.10,0.57,0.00,26.45,30.02,32.65,14.39,49.68,1018.79,2027.96,3213.43,3051.61,3333.55,599.99,590.43,24.05,0000 0000 0000 0000 000000
2015-08-28 09:12:20,0.15,0.58,0.00,26.45,30.02,32.66,14.42,49.52,1018.81,2027.95,3210.26,3049.45,3331.21,600.41,590.75,24.10,0000 0000 0000 0000 000000
2015-08-28 09:17:22,0.12,0.58,0.00,26.47,30.05,32.66,14.40,49.67,1018.64,2027.91,3207.61,3047.54,3329.11,599.79,590.05,24.15,0000 0000 0000 0000 000000
2015-08-28 09:22:23,0.12,0.59,0.00,26.47,30.05,32.69,14.37,49.68,1018.62,2027.77,3204.73,3045.54,3326.98,600.19,590.49,24.20,0000 0000 0000 0000 000000
2015-08-28 09:27:24,0.07,0.60,0.00,26.47,30.07,32.71,14.35,49.64,1018.59,2027.46,3202.19,3043.63,3324.99,599.72,589.99,24.25,0000 0000 0000 0000 000000
2015-08-28 09:32:25,0.05,0.60,0.00,26.47,30.08,32.72,14.29,49.50,1018.60,2027.07,3200.70,3042.63,3323.79,600.01,590.32,24.30,0000 0000 0000 0000 000000
2015-08-28 09:37:27,0.07,0.60,0.00,26.48,30.10,32.74,14.34,49.58,1018.58,2027.02,3198.99,3041.38,3322.37,599.73,589.98,24.35,0000 0000 0000 0000 000000
2015-08-28 09:42:29,0.06,0.61,0.00,26.50,30.11,32.76,14.38,49.43,1018.57,2027.00,3197.68,3040.36,3321.17,600.27,590.41,24.40,0000 0000 0000 0000 000000
2015-08-28 09:47:30,0.07,0.61,0.00,26.50,30.12,32.75,14.28,49.27,1018.57,2027.00,3196.03,3039.23,3319.92,599.48,589.71,24.45,0000 0000 0000 0000 000000
2015-08-28 09:52:31,0.06,0.61,0.00,26.52,30.13,32.76,14.29,49.38,1018.57,2027.00,3194.86,3038.15,3318.91,600.13,590.26,24.50,0000 0000 0000 0000 000000
2015-08-28 09:57:32,0.05,0.62,0.00,26.52,30.15,32.79,14.28,49.42,1018.57,2026.99,3193.83,3037.60,3318.04,599.74,589.91,24.55,0000 0000 0000 0000 000000
2015-08-28 10:02:33,0.03,0.62,0.00,26.52,30.15,32.80,14.32,49.53,1018.57,2026.98,3192.96,3036.92,3317.26,599.93,590.12,24.60,0000 0000 0000 0000 000000
2015-08-28 10:07:35,0.04,0.62,0.00,26.53,30.16,32.83,14.37,49.58,1018.43,2026.93,3192.11,3036.11,3316.59,600.05,590.11,24.65,0000 0000 0000 0000 000000
2015-08-28 10:12:37,0.02,0.62,0.00,26.52,30.17,32.83,14.34,49.47,1018.13,2026.87,3191.37,3035.95,3316.00,600.28,590.22,24.70,0000 0000 0000 0000 000000
2015-08-28 10:17:38,0.03,0.62,0.00,26.52,30.18,32.84,14.39,49.56,1018.09,2026.85,3190.96,3035.23,3315.50,599.98,589.77,24.75,0000 0000 0000 0000 000000
2015-08-28 10:22:39,0.01,0.62,0.00,26.55,30.20,32.84,14.42,49.48,1018.08,2026.74,3190.15,3035.00,3314.99,600.23,589.96,24.80,0000 0000 0000 0000 000000
2015-08-28 10:27:41,0.02,0.62,0.00,26.55,30.20,32.88,14.36,49.42,1018.27,2026.53,3189.45,3034.35,3314.23,599.80,589.75,24.85,0000 0000 0000 0000 000000
2015-08-28 10:32:42,-0.01,0.62,0.00,26.55,30.20,32.89,14.28,49.42,1018.35,2026.24,3188.87,3033.95,3313.78,599.99,590.02,24.90,0000 0000 0000 0000 000000
2015-08-28 10:37:43,0.04,0.63,0.00,26.55,30.22,32.89,14.32,49.44,1018.11,2026.13,3188.10,3033.46,3313.07,600.10,589.95,24.95,0000 0000 0000 0000 000000
2015-08-28 10:42:45,0.00,0.63,0.00,26.55,30.22,32.89,14.39,49.65,1018.09,2026.07,3187.93,3033.01,3312.88,600.18,590.03,25.00,0000 0000 0000 0000 000000
2015-08-28 10:47:46,0.02,0.63,0.00,26.56,30.22,32.90,14.41,49.73,1018.08,2026.02,3187.21,3032.91,3312.14,600.09,589.90,25.05,0000 0000 0000 0000 000000
2015-08-28 10:52:47,0.03,0.63,0.00,26.57,30.23,32.91,14.28,49.64,1018.08,2026.02,3186.79,3032.23,3311.97,599.85,589.62,25.10,0000 0000 0000 0000 000000
2015-08-28 10:57:48,0.02,0.63,0.00,26.57,30.25,32.91,14.36,49.43,1018.08,2026.01,3186.00,3032.00,3311.27,599.97,589.81,25.15,0000 0000 0000 0000 000000
2015-08-28 11:02:50,0.03,0.63,0.00,26.57,30.25,32.93,14.37,49.69,1018.07,2026.01,3185.23,3031.54,3310.96,600.44,590.21,25.20,0000 0000 0000 0000 000000
2015-08-28 11:07:51,0.02,0.63,0.00,26.57,30.25,32.94,14.32,49.48,1018.06,2026.01,3184.97,3031.03,3310.28,599.91,589.61,25.25,0000 0000 0000 0000 000000
2015-08-28 11:12:52,0.02,0.63,0.00,26.57,30.25,32.95,14.33,49.41,1018.08,2026.01,3184.23,3030.91,3309.99,600.03,589.81,25.30,0000 0000 0000 0000 000000
2015-08-28 11:17:54,0.03,0.64,0.00,26.57,30.27,32.95,14.31,49.54,1017.82,2026.01,3183.98,3030.22,3309.44,599.82,589.49,25.35,0000 0000 0000 0000 000000
2015-08-28 11:22:55,0.02,0.64,0.00,26.57,30.27,32.95,14.30,49.58,1017.61,2026.00,3183.25,3030.00,3309.00,600.01,589.51,25.40,0000 0000 0000 0000 000000
2015-08-28 11:27:56,0.02,0.64,0.00,26.57,30.27,32.96,14.31,49.44,1017.66,2026.00,3182.93,3029.76,3308.54,600.08,589.45,25.45,0000 0000 0000 0000 000000
2015-08-28 11:32:57,0.03,0.64,0.00,26.59,30.27,32.98,14.34,49.50,1017.71,2026.00,3182.11,3029.08,3308.02,599.92,589.54,25.50,0000 0000 0000 0000 000000
2015-08-28 11:37:58,0.02,0.64,0.00,26.58,30.28,32.97,14.29,49.59,1017.59,2026.00,3181.64,3028.97,3307.71,599.74,589.20,25.55,0000 0000 0000 0000 000000
2015-08-28 11:43:00,0.03,0.64,0.00,26.59,30.29,32.98,14.31,49.51,1017.59,2026.00,3181.03,3028.43,3307.04,599.99,589.39,25.60,0000 0000 0000 0000 000000
2015-08-28 11:48:01,0.03,0.64,0.00,26.60,30.30,32.98,14.29,49.44,1017.59,2026.00,3180.20,3027.79,3306.57,599.69,589.03,25.65,0000 0000 0000 0000 000000
2015-08-28 11:53:02,0.22,0.66,0.00,26.60,30.30,33.00,14.36,49.64,1017.59,2026.00,3176.50,3024.51,3303.14,599.86,589.31,25.70,0000 0000 0000 0000 000000
2015-08-28 11:58:03,0.07,0.66,0.00,26.60,30.30,32.99,14.38,49.54,1017.60,2025.99,3174.68,3023.58,3301.92,600.45,589.84,25.75,0000 0000 0000 0000 000000
2015-08-28 12:03:04,0.03,0.66,0.00,26.60,30.30,33.02,14.37,49.50,1017.62,2025.98,3173.73,3022.99,3301.06,600.15,589.56,25.80,0000 0000 0000 0000 000000
2015-08-28 12:08:05,0.02,0.66,0.00,26.61,30.32,33.01,14.33,49.62,1017.60,2025.98,3173.04,3022.57,3300.95,599.97,589.41,25.85,0000 0000 0000 0000 000000
2015-08-28 12:13:07,0.02,0.66,0.00,26.62,30.32,33.01,14.43,49.70,1017.59,2025.98,3172.96,3022.05,3300.29,600.55,589.72,25.90,0000 0000 0000 0000 000000
2015-08-28 12:18:08,0.01,0.66,0.00,26.62,30.32,33.01,14.34,49.65,1017.59,2025.97,3172.33,3022.00,3300.00,599.89,589.22,25.95,0000 0000 0000 0000 000000
2015-08-28 12:23:09,0.00,0.67,0.00,26.62,30.32,33.02,14.38,49.63,1017.59,2025.97,3172.01,3021.94,3299.91,600.09,589.47,26.00,0000 0000 0000 0000 000000
2015-08-28 12:28:10,0.04,0.67,0.00,26.62,30.32,33.02,14.33,49.70,1017.59,2025.95,3171.62,3021.30,3299.20,599.98,589.38,26.06,0000 0000 0000 0000 000000
2015-08-28 12:33:12,0.01,0.67,0.00,26.62,30.33,33.05,14.35,49.76,1017.59,2025.93,3171.02,3021.01,3299.00,600.36,589.82,26.11,0000 0000 0000 0000 000000
2015-08-28 12:38:13,-0.00,0.67,0.00,26.62,30.34,33.03,14.32,49.58,1017.59,2025.88,3170.95,3020.98,3298.83,600.14,589.54,26.16,0000 0000 0000 0000 000000
2015-08-28 12:43:14,0.02,0.67,0.00,26.62,30.35,33.06,14.39,49.54,1017.59,2025.74,3170.20,3020.63,3298.11,599.90,589.33,26.21,0000 0000 0000 0000 000000
2015-08-28 12:48:16,-0.00,0.67,0.00,26.62,30.35,33.06,14.38,49.61,1017.47,2025.49,3170.00,3020.06,3297.99,600.26,589.70,26.26,0000 0000 0000 0000 000000
2015-08-28 12:53:17,0.00,0.67,0.00,26.62,30.35,33.06,14.44,49.83,1017.35,2025.37,3169.44,3019.99,3297.51,600.43,589.69,26.31,0000 0000 0000 0000 000000
2015-08-28 12:58:19,0.00,0.67,0.00,26.62,30.35,33.04,14.42,49.80,1017.13,2025.20,3169.02,3019.87,3297.03,600.27,589.40,26.36,0000 0000 0000 0000 000000